This is the latest recevied weather packets stored in our database for station/object HASTNG-WX. If no packets are shown the sender has not sent any weather packets the latest 10 day(s).
| Time | Temp. | Humidity | Pressure | Rain* | Wind** | Luminosity | Snow |
|---|---|---|---|---|---|---|---|
| 1777778129 | 2.78° C | 65% | 986.4 hPa | 0 mm | - | - | - |
| 1777777257 | 3.33° C | 65% | 986.4 hPa | 0 mm | - | - | - |
| 1777776329 | 3.33° C | 60% | 986.9 hPa | 0 mm | - | - | - |
| 1777775449 | 3.33° C | 64% | 986.9 hPa | 0 mm | - | - | - |
| 1777774529 | 3.89° C | 64% | 986.9 hPa | 0 mm | - | - | - |
| 1777773656 | 3.89° C | 64% | 986.9 hPa | 0 mm | - | - | - |
| 1777772729 | 3.89° C | 61% | 986.3 hPa | 0 mm | - | - | - |
| 1777771847 | 4.44° C | 61% | 986.3 hPa | 0 mm | - | - | - |
| 1777770929 | 4.44° C | 61% | 986.3 hPa | 0 mm | - | - | - |
| 1777770055 | 5° C | 61% | 986.3 hPa | 0 mm | - | - | - |
| 1777769129 | 5.56° C | 48% | 987 hPa | 0 mm | - | - | - |
| 1777768243 | 6.11° C | 48% | 987.3 hPa | 0 mm | - | - | - |
| 1777767329 | 6.67° C | 48% | 987.3 hPa | 0 mm | - | - | - |
| 1777766456 | 7.22° C | 48% | 987.3 hPa | 0 mm | - | - | - |
| 1777765530 | 7.22° C | 41% | 987 hPa | 0 mm | - | - | - |
| 1777764642 | 7.78° C | 43% | 987.1 hPa | 0 mm | - | - | - |
| 1777763730 | 7.78° C | 43% | 987.1 hPa | 0 mm | - | - | - |
| 1777762856 | 7.78° C | 43% | 987.1 hPa | 0 mm | - | - | - |
| 1777761930 | 8.33° C | 40% | 987.5 hPa | 0 mm | - | - | - |
| 1777761048 | 8.33° C | 42% | 988.1 hPa | 0 mm | - | - | - |
| 1777760130 | 8.33° C | 42% | 988.1 hPa | 0 mm | - | - | - |
| 1777759255 | 8.33° C | 42% | 988.1 hPa | 0 mm | - | - | - |
| 1777758330 | 8.33° C | 44% | 988.3 hPa | 0 mm | - | - | - |
| 1777757448 | 8.33° C | 39% | 987.9 hPa | 0 mm | - | - | - |
| 1777756530 | 8.33° C | 39% | 987.8 hPa | 0 mm | - | - | - |
* Rain latest hour (hover to see other rain measurements)
** Current wind speed in m/s (hover to see current wind gust speed)